Misión y Visión

La misión es proporcionar información fiable a la navegación aérea, contribuyendo a la seguridad, regularidad y eficiencia de la Navegación Aérea Internacional

La visión es contribuir sustancialmente al desarrollo de conocimientos y a la utilización de la meteorología aeronáutica a nivel nacional e internacional, mediante la innovación y la coparticipación con sectores sociales y productivos de la sociedad.

 
  Inicio
  Metar
  Taf
  Wintemp
  SIGMET
  Avisos
  Pronósticos
  Carpeta Meteorologica
  Imágenes Satelitales
  Climatología Aeronáutica
   
  ¿Quienes Somos?
  Contacto
  Eventos



DIRECCIONES PARA INFORMES NACIONALES E INTERNACIONALES
(Metar /Speci - TAF)



http://adds.aviationweather.gov/tafs/index.php

http://www.ogimet.com/metars.phtml



PRONÓSTICOS DE AERÓDROMO

Cuando sea necesario, el encabezamiento abreviado puede incluir un cuarto grupo consistente en tres letras para identificar los boletines demorados (RRA), corregidos(CCA) o enmendados (AAA). Los boletines adicionales demorados, corregidos o enmendados deben identificarse con las letras RRB, RRC, etc.; CCB, CCC,etc.;AAB, AAC,etc.



ESTACIONES DESCRIPCION  
MPTO (M) 300300Z 30005KT 9999 FEW018 SCT090 27/25 Q1011 NOSIG=  
MPBO (M) 300100Z VRB02KT 9999 SCT018 BKN090 Q1013=  
MPCH (M)  
MPSA (M)  
MPCE (M)  
MPPN (M)  
MPSM (M)  
MPJE (M)  
MPPA (M) 300200Z 34006KT 9999 FEW020 25/22 Q1011=  
MPMG (M) 300300Z 33004KT 9999 FEW018CB SCT090 27/25 Q1012 NOSIG RMK LTNG DSNT SE=  
MPDA (M) 300300Z 00000KT(E) 9999 TS SCT015CB BKN080 ///// Q1011 RWY DAMP RMK TS SW=  
MPVR (M)  
MPWN (M)  
MPOA (M)  
MPMF (M)  
MPEJ (M)  

 

 

 

CLIMATICAS

MPTO

31-03-2016

PCPN

T° MAX

T° MIN

VIENTO MAX (KT)

HORA

VIENTO PREDOM (KT)

0.0

34.8

20.0

18015KT

1700Z

VRB 05KT

CLIMATICAS

MPMG

31-03-2016

PCPN

T° MAX

T° MIN

VIENTO MAX (KT)

HORA

VIENTO PREDOM (KT)

0.0

34.0

24.2

28011KT

2000Z NNW

 

 
 



























  Noticias AAC
  Directorio
  Contáctenos
  Historia
  Quejas y Sugerencias
  Etica y Transparencia

  Gestión SSP/SMS
  Seguridad Aérea
  Navegación Aérea
  Transporte Aéreo

  Tramites
  Áeronaves de Alquiler

  Meteorología
  I.S.F.P.A
  Notam
  Peligro Aviario
  AVSEC
  UPIA
  Permisos
 




DECLARACIÓN DE PRIVACIDAD